When you browse on this site, cookies collect data to enhance your experience and personalize the content and advertising you see.
Visit our Privacy Policy to learn more. By continuing to use the site, you agree to this use of cookies and data.
  • En Estados Unidos
  • Lista de países
  • Para 7 días
  • Temperatura del agua
  • Mapa Satelital
  • El tiempo en el mapa
  • Informadores
  • user-avatar
    Iniciar sesión

    Tiempo cada hora Augusta

    Hoy, 17 Diciembre, Lunes

    Tiempo Temperatura Precipitaciones Viento Presión Humedad
    00:00 -1°C° 0.2 mm 2 mps 755 mmHg 86%
    01:00 -1°C° 0.2 mm 2 mps 754 mmHg 87%
    02:00 -1°C° 1 mm 3 mps 753 mmHg 89%
    03:00 -1°C° 1 mm 3 mps 752 mmHg 92%
    04:00 -1°C° 1 mm 3 mps 751 mmHg 94%
    05:00 -1°C° 0.3 mm 3 mps 750 mmHg 94%
    06:00 -1°C° 0.3 mm 3 mps 749 mmHg 94%
    07:00 -1°C° 0.3 mm 3 mps 748 mmHg 94%
    08:00 -1°C° 0.4 mm 3 mps 748 mmHg 93%
    09:00 0°C° 0.4 mm 3 mps 748 mmHg 93%
    10:00 0°C° 0.4 mm 3 mps 747 mmHg 93%
    11:00 0°C° 0.6 mm 3 mps 746 mmHg 93%
    12:00 +1°C° 0.6 mm 2 mps 745 mmHg 93%
    13:00 +1°C° 0.6 mm 2 mps 745 mmHg 93%
    14:00 +1°C° 0.7 mm 2 mps 744 mmHg 93%
    15:00 +1°C° 0.7 mm 2 mps 744 mmHg 94%
    16:00 +1°C° 0.7 mm 2 mps 743 mmHg 94%
    17:00 0°C° 0.7 mm 3 mps 743 mmHg 92%
    18:00 0°C° 0.7 mm 3 mps 743 mmHg 90%
    19:00 -1°C° 0.7 mm 4 mps 743 mmHg 88%
    20:00 -1°C° 0.2 mm 4 mps 743 mmHg 85%
    21:00 -1°C° 0.2 mm 4 mps 742 mmHg 81%
    22:00 -1°C° 0.2 mm 5 mps 742 mmHg 78%
    23:00 -2°C° 0.1 mm 5 mps 743 mmHg 76%

    Mañana, 18 Diciembre, Martes

    Tiempo Temperatura Precipitaciones Viento Presión Humedad
    00:00 -3°C° 0.1 mm 6 mps 743 mmHg 74%
    01:00 -4°C° 0.1 mm 7 mps 743 mmHg 71%
    02:00 -6°C° 0 mm 7 mps 743 mmHg 70%
    03:00 -7°C° 0 mm 7 mps 744 mmHg 69%
    04:00 -8°C° 0 mm 7 mps 744 mmHg 68%
    05:00 -8°C° 0 mm 7 mps 745 mmHg 67%
    06:00 -9°C° 0 mm 7 mps 746 mmHg 66%
    07:00 -11°C° 0 mm 7 mps 747 mmHg 65%
    08:00 -10°C° 0 mm 8 mps 748 mmHg 64%
    09:00 -10°C° 0 mm 8 mps 748 mmHg 63%
    10:00 -10°C° 0 mm 8 mps 749 mmHg 62%
    11:00 -8°C° 0 mm 8 mps 749 mmHg 62%
    12:00 -8°C° 0 mm 8 mps 749 mmHg 61%
    13:00 -8°C° 0 mm 7 mps 750 mmHg 61%
    14:00 -9°C° 0 mm 7 mps 750 mmHg 62%
    15:00 -9°C° 0 mm 7 mps 751 mmHg 63%
    16:00 -10°C° 0 mm 6 mps 752 mmHg 64%
    17:00 -10°C° 0 mm 6 mps 752 mmHg 65%
    18:00 -11°C° 0 mm 6 mps 753 mmHg 66%
    19:00 -11°C° 0 mm 5 mps 754 mmHg 67%
    20:00 -11°C° 0 mm 5 mps 754 mmHg 68%
    21:00 -12°C° 0 mm 5 mps 755 mmHg 69%
    22:00 -11°C° 0 mm 4 mps 755 mmHg 70%
    23:00 -11°C° 0 mm 4 mps 755 mmHg 70%

    Pasado mañana, 19 Diciembre, Miércoles

    Tiempo Temperatura Precipitaciones Viento Presión Humedad
    00:00 -11°C° 0 mm 4 mps 756 mmHg 70%
    01:00 -11°C° 0 mm 4 mps 756 mmHg 70%
    02:00 -11°C° 0 mm 4 mps 756 mmHg 69%
    03:00 -11°C° 0 mm 4 mps 756 mmHg 69%
    04:00 -10°C° 0 mm 3 mps 757 mmHg 69%
    05:00 -10°C° 0 mm 3 mps 757 mmHg 70%
    06:00 -10°C° 0 mm 2 mps 757 mmHg 72%
    07:00 -10°C° 0 mm 2 mps 758 mmHg 73%
    08:00 -8°C° 0 mm 2 mps 758 mmHg 69%
    09:00 -7°C° 0 mm 2 mps 758 mmHg 66%
    10:00 -6°C° 0 mm 2 mps 758 mmHg 62%
    11:00 -4°C° 0 mm 2 mps 757 mmHg 60%
    12:00 -3°C° 0 mm 2 mps 757 mmHg 59%
    13:00 -2°C° 0 mm 2 mps 756 mmHg 57%
    14:00 -3°C° 0 mm 2 mps 756 mmHg 63%
    15:00 -3°C° 0 mm 2 mps 756 mmHg 68%
    16:00 -2°C° 0 mm 1 mps 756 mmHg 74%
    17:00 -2°C° 0 mm 1 mps 757 mmHg 75%
    18:00 -3°C° 0 mm 1 mps 757 mmHg 76%
    19:00 -3°C° 0 mm 1 mps 757 mmHg 77%
    20:00 -3°C° 0 mm 1 mps 758 mmHg 77%
    21:00 -3°C° 0 mm 1 mps 758 mmHg 77%
    22:00 -3°C° 0 mm 1 mps 758 mmHg 77%
    23:00 -4°C° 0 mm 0 mps 758 mmHg 77%

    20 Diciembre, Jueves

    Tiempo Temperatura Precipitaciones Viento Presión Humedad
    00:00 -4°C° 0 mm 0 mps 758 mmHg 77%
    01:00 -4°C° 0 mm 0 mps 758 mmHg 78%
    02:00 -4°C° 0 mm 0 mps 758 mmHg 78%
    03:00 -4°C° 0 mm 0 mps 759 mmHg 79%
    04:00 -4°C° 0 mm 0 mps 759 mmHg 79%
    05:00 -4°C° 0 mm 0 mps 759 mmHg 79%
    06:00 -4°C° 0 mm 0 mps 759 mmHg 79%
    07:00 -4°C° 0 mm 0 mps 759 mmHg 80%
    08:00 -3°C° 0 mm 0 mps 760 mmHg 76%
    09:00 -1°C° 0 mm 0 mps 760 mmHg 73%
    10:00 0°C° 0 mm 0 mps 760 mmHg 69%
    11:00 +1°C° 0 mm 0 mps 760 mmHg 69%
    12:00 +2°C° 0 mm 0 mps 760 mmHg 68%
    13:00 +4°C° 0 mm 1 mps 759 mmHg 68%
    14:00 +2°C° 0 mm 0 mps 759 mmHg 73%
    15:00 0°C° 0 mm 0 mps 759 mmHg 78%
    16:00 -1°C° 0 mm 0 mps 759 mmHg 83%
    17:00 -1°C° 0 mm 0 mps 760 mmHg 83%
    18:00 0°C° 0 mm 1 mps 760 mmHg 84%
    19:00 0°C° 0 mm 1 mps 760 mmHg 85%
    20:00 -1°C° 0 mm 1 mps 760 mmHg 85%
    21:00 -2°C° 0 mm 0 mps 760 mmHg 85%
    22:00 -2°C° 0 mm 0 mps 760 mmHg 85%
    23:00 -2°C° 0 mm 0 mps 759 mmHg 86%

    21 Diciembre, Viernes

    Tiempo Temperatura Precipitaciones Viento Presión Humedad
    00:00 -2°C° 0 mm 0 mps 759 mmHg 86%
    01:00 -2°C° 0 mm 0 mps 759 mmHg 86%
    02:00 -2°C° 0 mm 0 mps 759 mmHg 87%
    03:00 0°C° 0 mm 1 mps 759 mmHg 87%
    04:00 0°C° 0 mm 1 mps 759 mmHg 88%
    05:00 0°C° 0 mm 1 mps 759 mmHg 89%
    06:00 +1°C° 0 mm 1 mps 758 mmHg 91%
    07:00 +1°C° 0 mm 1 mps 758 mmHg 92%
    08:00 +1°C° 0.5 mm 2 mps 758 mmHg 93%
    09:00 +2°C° 0.5 mm 2 mps 757 mmHg 95%
    10:00 +3°C° 0.5 mm 2 mps 757 mmHg 97%
    11:00 +2°C° 1.3 mm 3 mps 756 mmHg 97%
    12:00 +3°C° 1.3 mm 3 mps 754 mmHg 97%
    13:00 +4°C° 1.3 mm 4 mps 753 mmHg 97%
    14:00 +4°C° 1.5 mm 4 mps 752 mmHg 97%
    15:00 +5°C° 1.5 mm 4 mps 751 mmHg 97%
    16:00 +5°C° 1.5 mm 5 mps 750 mmHg 97%
    17:00 +5°C° 1.2 mm 4 mps 749 mmHg 97%
    18:00 +5°C° 1.2 mm 4 mps 749 mmHg 97%
    19:00 +5°C° 1.2 mm 4 mps 748 mmHg 98%
    20:00 +5°C° 0.5 mm 4 mps 747 mmHg 98%
    21:00 +5°C° 0.5 mm 3 mps 746 mmHg 98%
    22:00 +5°C° 0.5 mm 3 mps 745 mmHg 98%
    23:00 +7°C° 0.7 mm 3 mps 744 mmHg 99%

    22 Diciembre, Sábado

    Tiempo Temperatura Precipitaciones Viento Presión Humedad
    00:00 +8°C° 0.7 mm 2 mps 743 mmHg 99%
    01:00 +9°C° 0.7 mm 2 mps 743 mmHg 99%
    02:00 +9°C° 0.1 mm 2 mps 742 mmHg 99%
    03:00 +9°C° 0.1 mm 2 mps 741 mmHg 99%
    04:00 +9°C° 0.1 mm 2 mps 741 mmHg 99%
    05:00 +8°C° 0.5 mm 2 mps 740 mmHg 99%
    06:00 +8°C° 0.5 mm 2 mps 740 mmHg 99%
    07:00 +7°C° 0.5 mm 2 mps 739 mmHg 99%
    08:00 +7°C° 2.5 mm 2 mps 739 mmHg 99%
    09:00 +7°C° 2.5 mm 2 mps 738 mmHg 98%
    10:00 +6°C° 2.5 mm 2 mps 737 mmHg 98%
    11:00 +5°C° 0.4 mm 3 mps 737 mmHg 97%
    12:00 +7°C° 0.4 mm 3 mps 736 mmHg 97%
    13:00 +7°C° 0.4 mm 3 mps 736 mmHg 96%
    14:00 +5°C° 0.1 mm 3 mps 736 mmHg 96%
    15:00 +5°C° 0.1 mm 3 mps 736 mmHg 95%
    16:00 +5°C° 0.1 mm 3 mps 736 mmHg 95%
    17:00 +4°C° 0.1 mm 3 mps 737 mmHg 95%
    18:00 +4°C° 0.1 mm 3 mps 737 mmHg 94%
    19:00 +4°C° 0.1 mm 3 mps 737 mmHg 94%
    20:00 +3°C° 0 mm 3 mps 738 mmHg 93%
    21:00 +3°C° 0 mm 3 mps 738 mmHg 92%
    22:00 +2°C° 0 mm 3 mps 738 mmHg 91%
    23:00 +2°C° 0 mm 3 mps 739 mmHg 87%
    Mostrar más